Location: Caltech
(34.1382°N, 118.1253°W)
Time: 04:10:34
(UTC-07:00)

Cosmos 1758 Rocket - Visible Passes

Search period start: 26 July 2014 00:00
Search period end: 05 August 2014 00:00
Orbit: 603 x 639 km, 82.5° (Epoch: 26 July)

Date Brightness Start Highest point End Pass type
(mag) Time Alt. Az. Time Alt. Az. Time Alt. Az.
27 Jul 6.1 00:08:45 10° NNW 00:09:58 18° NNW 00:09:58 18° NNW visible
27 Jul 6.0 22:49:48 10° NNE 22:50:39 14° NE 22:50:39 14° NE visible
28 Jul 6.4 00:27:14 10° NNW 00:27:51 13° NW 00:27:51 13° NW visible
28 Jul 5.7 23:07:02 10° N 23:08:32 20° NNE 23:08:32 20° NNE visible
29 Jul 5.7 23:24:46 10° N 23:26:26 23° N 23:26:26 23° N visible
30 Jul 6.0 23:42:53 10° NNW 23:44:21 20° NNW 23:44:21 20° NNW visible
31 Jul 5.7 22:23:41 10° NNE 22:25:04 16° NE 22:25:04 16° NE visible
01 Aug 6.4 00:01:28 10° NW 00:02:16 14° NW 00:02:16 14° NW visible
01 Aug 5.3 22:41:02 10° N 22:43:01 25° NNE 22:43:01 25° NNE visible
02 Aug 5.3 22:58:50 10° N 23:00:58 29° N 23:00:58 29° N visible
03 Aug 5.8 21:41:02 10° NE 21:41:44 12° NE 21:41:44 12° NE visible
03 Aug 5.7 23:17:01 10° NNW 23:18:56 23° NW 23:18:56 23° NW visible
04 Aug 5.3 21:57:35 10° NNE 21:59:43 21° NE 21:59:43 21° NE visible
04 Aug 6.3 23:35:43 10° NW 23:36:55 15° NW 23:36:55 15° NW visible
